Location: Kitt Peak
(31.9633°N, 111.6000°W)
Time: 17:56:24
(UTC-07:00)

Amateur Radio Satellites - All Passes

Search period start: 29 July 2014 17:26
Search period end: 30 July 2014 17:26
Location: Kitt Peak, 31.9633°N, 111.6000°W

Satellite Date Start Highest point End Downlink Frequencies (MHz)
Time Altitude Azimuth
OPAL 29 Jul 17:33:50 17:37:51 24° 293° (WNW) 17:41:54 ?
JAS-2 29 Jul 17:39:53 17:47:36 63° 74° (ENE) 17:54:55 435.800 - 435.900 CW/SSB, 435.910 FM
STRAND 1 29 Jul 18:19:27 18:23:24 22° 96° (E) 18:27:18 ?
SO-67 29 Jul 18:26:41 18:29:41 28° 74° (ENE) 18:32:41 435.3500 MHz FM
Hamsat 29 Jul 18:30:48 18:34:17 26° 263° (W) 18:37:48 145.90 MHz
MaSat-1 29 Jul 19:26:08 19:27:20 11° 98° (E) 19:28:34 437.345 MHz
JAS-2 29 Jul 19:27:00 19:32:47 22° 266° (W) 19:38:25 435.800 - 435.900 CW/SSB, 435.910 FM
STRAND 1 29 Jul 19:58:03 20:02:33 33° 289° (WNW) 20:07:03 ?
SO-67 29 Jul 20:01:47 20:02:46 11° 266° (W) 20:03:46 435.3500 MHz FM
SO-50 29 Jul 20:04:39 20:07:13 14° 50° (NE) 20:09:48 436.795 FM
HO-68 29 Jul 20:10:38 20:17:24 47° 69° (ENE) 20:24:10 435.675 MHz FM
UKube-1 29 Jul 20:48:25 20:52:41 55° 75° (ENE) 20:56:57 145.840 MHz, 145.915 MHz
MaSat-1 29 Jul 21:00:13 21:03:55 42° 297° (WNW) 21:08:14 437.345 MHz
RS-15 29 Jul 21:11:01 21:20:52 35° 49° (NE) 21:30:57 29.354 - 29.394 USB, Beacon 29.352 USB
Oscar 11 29 Jul 21:32:35 21:36:53 88° 75° (ENE) 21:41:13 145.825 FM, Beacon 2401.500 USB
SO-50 29 Jul 21:43:25 21:48:08 61° 245° (WSW) 21:52:54 436.795 FM
FUNcube-1 29 Jul 21:56:43 22:00:58 55° 76° (ENE) 22:05:08 145.950 - 145.970 MHz USB
HO-68 29 Jul 21:59:20 22:05:11 27° 263° (W) 22:11:04 435.675 MHz FM
UOSAT-12 29 Jul 22:00:37 22:03:15 15° 50° (NE) 22:05:52 437.025 FM, 437.400 FM
ISS 29 Jul 22:10:52 22:14:10 81° 135° (SE) 22:17:31 145.800 FM
AO-40 29 Jul 22:48:53 02:20:46 45° 188° (S) 08:09:18 Beacon 2401.320
Sapphire 29 Jul 22:53:29 22:57:01 18° 105° (ESE) 23:00:34 437.095 MHz 1200 baud AX-25 AFSK
RS-15 29 Jul 23:22:49 23:33:41 61° 249° (WSW) 23:45:01 29.354 - 29.394 USB, Beacon 29.352 USB
PCSat 29 Jul 23:25:03 23:30:04 41° 109° (ESE) 23:35:07 145.825 MHz
UOSAT-12 29 Jul 23:39:08 23:43:45 56° 245° (WSW) 23:48:16 437.025 FM, 437.400 FM
Oscar 10/S400 29 Jul 23:50:03 00:19:04 80° 182° (S) 10:05:12 145.825 - 145.975 CW/USB, Beacon 145.810 USB
ISS 29 Jul 23:50:14 23:51:16 11° 330° (NNW) 23:52:19 145.800 FM
Sapphire 30 Jul 00:34:50 00:40:00 46° 299° (WNW) 00:45:13 437.095 MHz 1200 baud AX-25 AFSK
Oscar 19 30 Jul 01:03:18 01:07:04 20° 95° (E) 01:10:49 437.125 CW, 437.150 USB
PCSat 30 Jul 01:09:26 01:13:35 22° 305° (NW) 01:17:46 145.825 MHz
Oscar 16 30 Jul 01:30:57 01:35:50 42° 99° (E) 01:40:42 437.025 USB, Beacon 2401.1428
ITAMSAT 1 30 Jul 01:54:30 01:58:57 29° 97° (E) 02:03:22 435.822 SSB
Uribyol 2 30 Jul 02:13:13 02:18:12 49° 100° (E) 02:23:10 436.500 FM
AO-27 30 Jul 02:13:36 02:18:35 47° 100° (E) 02:23:32 436.795 MHz FM
PANSAT 30 Jul 02:18:35 02:20:33 14° 156° (SSE) 02:22:31 not established
TMSAT-1 30 Jul 02:19:22 02:21:54 14° 93° (E) 02:24:25 436.925 FM
JAS-1B 30 Jul 02:41:18 02:50:08 56° 99° (E) 02:57:31 435.800 - 435.900 CW/SSB
Oscar 19 30 Jul 02:41:42 02:46:26 37° 288° (WNW) 02:51:10 437.125 CW, 437.150 USB
Gurwin Techsat 1B 30 Jul 02:42:32 02:47:22 35° 98° (E) 02:52:11 435.225 FM
AO-Echo 30 Jul 02:48:58 02:53:56 68° 285° (WNW) 02:58:44 ?
OPAL 30 Jul 03:05:13 03:09:36 33° 69° (ENE) 03:13:59 ?
Oscar 16 30 Jul 03:11:18 03:14:49 19° 293° (WNW) 03:18:20 437.025 USB, Beacon 2401.1428
ITAMSAT 1 30 Jul 03:34:02 03:38:17 26° 291° (WNW) 03:42:31 435.822 SSB
Uribyol 2 30 Jul 03:54:10 03:57:14 16° 294° (WNW) 04:00:17 436.500 FM
AO-27 30 Jul 03:54:28 03:57:39 17° 294° (WNW) 04:00:51 436.795 MHz FM
PANSAT 30 Jul 03:56:44 04:00:17 35° 167° (SSE) 04:03:50 not established
TMSAT-1 30 Jul 03:56:55 04:02:05 56° 286° (WNW) 04:07:14 436.925 FM
Gurwin Techsat 1B 30 Jul 04:23:01 04:27:04 23° 292° (WNW) 04:31:07 435.225 FM
KITSAT 1 30 Jul 04:31:45 04:38:46 34° 107° (ESE) 04:45:47 435.175 FM
JAS-1B 30 Jul 04:32:32 04:39:55 29° 298° (WNW) 04:46:27 435.800 - 435.900 CW/SSB
AO-7 30 Jul 04:35:28 04:43:41 61° 104° (ESE) 04:51:49 29.400 - 29.500 MHz
OPAL 30 Jul 04:44:44 04:48:28 21° 262° (W) 04:52:12 ?
ISS 30 Jul 04:44:52 04:46:18 12° 31° (NNE) 04:47:43 145.800 FM
Uosat F 30 Jul 04:46:47 04:51:49 86° 284° (WNW) 04:56:48 435.120 FM
MaSat-1 30 Jul 05:24:09 05:27:28 17° 56° (NE) 05:30:39 437.345 MHz
STRAND 1 30 Jul 05:31:05 05:34:50 21° 68° (ENE) 05:38:34 ?
PANSAT 30 Jul 05:36:29 05:40:14 50° 180° (S) 05:44:00 not established
ISS 30 Jul 06:19:59 06:23:20 70° 227° (SW) 06:26:40 145.800 FM
Hamsat 30 Jul 06:20:25 06:24:45 77° 101° (ESE) 06:29:05 145.90 MHz
KITSAT 1 30 Jul 06:26:12 06:33:52 45° 302° (WNW) 06:41:34 435.175 FM
AO-7 30 Jul 06:29:24 06:35:49 26° 299° (WNW) 06:42:14 29.400 - 29.500 MHz
JAS-2 30 Jul 06:41:15 06:46:59 79° 102° (ESE) 06:52:13 435.800 - 435.900 CW/SSB, 435.910 FM
Saudisat 1A 30 Jul 06:52:04 06:56:27 69° 299° (WNW) 07:00:52 436.775 MHz
MaSat-1 30 Jul 07:00:06 07:05:11 53° 252° (WSW) 07:09:49 437.345 MHz
STRAND 1 30 Jul 07:08:59 07:13:43 37° 261° (W) 07:18:28 ?
PANSAT 30 Jul 07:16:39 07:20:11 34° 193° (SSW) 07:23:43 not established
SO-67 30 Jul 07:27:43 07:31:11 71° 101° (E) 07:34:38 435.3500 MHz FM
PCSat 30 Jul 08:19:34 08:22:08 13° 51° (NE) 08:24:40 145.825 MHz
JAS-2 30 Jul 08:30:43 08:31:05 10° 300° (WNW) 08:31:28 435.800 - 435.900 CW/SSB, 435.910 FM
UKube-1 30 Jul 08:43:16 08:45:32 14° 94° (E) 08:47:48 145.840 MHz, 145.915 MHz
PANSAT 30 Jul 08:58:01 08:59:55 13° 204° (SSW) 09:01:49 not established
Oscar 11 30 Jul 09:25:46 09:29:14 23° 96° (E) 09:32:41 145.825 FM, Beacon 2401.500 USB
Sapphire 30 Jul 09:27:31 09:32:46 49° 62° (ENE) 09:37:59 437.095 MHz 1200 baud AX-25 AFSK
HO-68 30 Jul 09:30:42 09:37:52 77° 104° (ESE) 09:44:59 435.675 MHz FM
FUNcube-1 30 Jul 09:52:01 09:54:28 15° 95° (E) 09:56:55 145.950 - 145.970 MHz USB
PCSat 30 Jul 10:00:40 10:06:06 75° 247° (WSW) 10:11:28 145.825 MHz
SO-50 30 Jul 10:17:21 10:18:12 11° 107° (ESE) 10:19:03 436.795 FM
UKube-1 30 Jul 10:17:49 10:21:50 38° 287° (WNW) 10:25:50 145.840 MHz, 145.915 MHz
Oscar 11 30 Jul 11:01:51 11:05:16 23° 289° (WNW) 11:08:42 145.825 FM, Beacon 2401.500 USB
Sapphire 30 Jul 11:12:19 11:15:43 17° 255° (WSW) 11:19:07 437.095 MHz 1200 baud AX-25 AFSK
HO-68 30 Jul 11:20:30 11:24:44 17° 300° (WNW) 11:28:58 435.675 MHz FM
FUNcube-1 30 Jul 11:27:09 11:30:53 32° 287° (WNW) 11:34:41 145.950 - 145.970 MHz USB
RS-15 30 Jul 11:29:21 11:38:53 33° 106° (ESE) 11:48:09 29.354 - 29.394 USB, Beacon 29.352 USB
SO-50 30 Jul 11:53:50 11:58:11 56° 300° (WNW) 12:02:38 436.795 FM
UOSAT-12 30 Jul 12:09:18 12:10:23 11° 106° (ESE) 12:11:28 437.025 FM, 437.400 FM
Oscar 19 30 Jul 12:16:07 12:19:31 18° 67° (ENE) 12:22:56 437.125 CW, 437.150 USB
Oscar 16 30 Jul 12:43:20 12:47:59 37° 72° (ENE) 12:52:40 437.025 USB, Beacon 2401.1428
ITAMSAT 1 30 Jul 13:07:58 13:12:20 28° 70° (ENE) 13:16:41 435.822 SSB
JAS-1B 30 Jul 13:18:16 13:25:59 35° 64° (ENE) 13:34:23 435.800 - 435.900 CW/SSB
Uribyol 2 30 Jul 13:26:19 13:31:15 45° 73° (ENE) 13:36:11 436.500 FM
AO-27 30 Jul 13:26:57 13:31:53 44° 72° (ENE) 13:36:49 436.795 MHz FM
TMSAT-1 30 Jul 13:35:52 13:38:33 14° 65° (ENE) 13:41:15 436.925 FM
RS-15 30 Jul 13:39:39 13:50:35 58° 303° (WNW) 14:01:19 29.354 - 29.394 USB, Beacon 29.352 USB
UOSAT-12 30 Jul 13:45:26 13:49:56 59° 300° (WNW) 13:54:33 437.025 FM, 437.400 FM
Oscar 19 30 Jul 13:53:42 13:58:30 42° 261° (W) 14:03:20 437.125 CW, 437.150 USB
AO-Echo 30 Jul 13:56:11 14:01:29 90° 257° (WSW) 14:06:50 ?
Gurwin Techsat 1B 30 Jul 13:58:56 14:03:42 35° 71° (ENE) 14:08:29 435.225 FM
Oscar 16 30 Jul 14:23:42 14:27:23 20° 265° (W) 14:31:04 437.025 USB, Beacon 2401.1428
KITSAT 1 30 Jul 14:24:37 14:32:07 40° 56° (NE) 14:39:32 435.175 FM
ITAMSAT 1 30 Jul 14:47:15 14:51:41 28° 263° (W) 14:56:07 435.822 SSB
JAS-1B 30 Jul 15:07:30 15:15:51 54° 262° (W) 15:25:20 435.800 - 435.900 CW/SSB
Uribyol 2 30 Jul 15:07:39 15:10:52 17° 266° (W) 15:14:06 436.500 FM
AO-27 30 Jul 15:08:10 15:11:32 17° 265° (W) 15:14:54 436.795 MHz FM
TMSAT-1 30 Jul 15:12:43 15:17:55 59° 259° (W) 15:23:09 436.925 FM
OPAL 30 Jul 15:21:21 15:23:47 13° 96° (E) 15:26:14 ?
Saudisat 1A 30 Jul 15:23:59 15:27:33 23° 54° (NE) 15:31:04 436.775 MHz
AO-7 30 Jul 15:28:50 15:36:52 54° 68° (ENE) 15:44:56 29.400 - 29.500 MHz
Gurwin Techsat 1B 30 Jul 15:39:35 15:43:40 23° 264° (W) 15:47:47 435.225 FM
Uosat F 30 Jul 15:55:03 16:00:05 78° 76° (ENE) 16:05:08 435.120 FM
RS-15 30 Jul 16:00:25 16:05:57 15° 329° (NNW) 16:11:29 29.354 - 29.394 USB, Beacon 29.352 USB
KITSAT 1 30 Jul 16:20:05 16:27:22 39° 252° (WSW) 16:34:37 435.175 FM
JAS-2 30 Jul 16:47:06 16:53:08 26° 67° (ENE) 16:58:52 435.800 - 435.900 CW/SSB, 435.910 FM
OPAL 30 Jul 16:57:54 17:02:53 55° 288° (WNW) 17:07:54 ?
Saudisat 1A 30 Jul 17:03:21 17:07:03 27° 249° (WSW) 17:10:44 436.775 MHz
Hamsat 30 Jul 17:09:32 17:13:06 28° 72° (ENE) 17:16:41 145.90 MHz
